Location: Slave Lake
(55.2830°N, 114.7830°W)
Time: 18:38:56
(UTC-06:00)

Amateur Radio Satellites - All Passes

Search period start: 19 April 2014 18:08
Search period end: 20 April 2014 18:08
Location: Slave Lake, 55.2830°N, 114.7830°W

Satellite Date Start Highest point End Downlink Frequencies (MHz)
Time Altitude Azimuth
SO-50 19 Apr 18:10:42 18:15:12 73° 321° (NW) 18:19:47 436.795 FM
OPAL 19 Apr 18:20:20 18:24:49 30° 306° (NW) 18:29:18 ?
SO-67 19 Apr 18:24:02 18:25:38 13° 56° (NE) 18:27:14 435.3500 MHz FM
JAS-2 19 Apr 18:32:03 18:36:57 34° 60° (ENE) 18:41:37 435.800 - 435.900 CW/SSB, 435.910 FM
ISS 19 Apr 18:33:50 18:36:59 38° 168° (SSE) 18:40:08 145.800 FM
Hamsat 19 Apr 18:38:22 18:42:34 71° 72° (ENE) 18:46:51 145.90 MHz
AO-7 19 Apr 18:45:15 18:51:59 27° 271° (W) 18:58:46 29.400 - 29.500 MHz
UOSAT-12 19 Apr 18:52:48 18:56:58 35° 123° (ESE) 19:01:12 437.025 FM, 437.400 FM
Saudisat 1A 19 Apr 18:53:23 18:57:45 51° 33° (NNE) 19:02:04 436.775 MHz
JAS-1B 19 Apr 19:02:37 19:05:36 13° 279° (W) 19:08:26 435.800 - 435.900 CW/SSB
HO-68 19 Apr 19:14:48 19:19:58 22° 39° (NE) 19:25:08 435.675 MHz FM
STRAND 1 19 Apr 19:19:55 19:23:37 20° 88° (E) 19:27:18 ?
RS-15 19 Apr 19:39:27 19:44:03 14° 268° (W) 19:48:43 29.354 - 29.394 USB, Beacon 29.352 USB
SO-50 19 Apr 19:52:25 19:56:26 30° 344° (NNW) 20:00:30 436.795 FM
SO-67 19 Apr 19:54:45 19:58:16 89° 256° (WSW) 20:01:48 435.3500 MHz FM
ISS 19 Apr 20:10:12 20:13:25 42° 187° (S) 20:16:37 145.800 FM
Hamsat 19 Apr 20:16:12 20:19:05 18° 272° (W) 20:21:59 145.90 MHz
JAS-2 19 Apr 20:16:32 20:22:01 51° 260° (W) 20:27:09 435.800 - 435.900 CW/SSB, 435.910 FM
Oscar 11 19 Apr 20:18:41 20:19:37 11° 47° (NE) 20:20:34 145.825 FM, Beacon 2401.500 USB
UOSAT-12 19 Apr 20:32:22 20:36:58 61° 325° (NW) 20:41:39 437.025 FM, 437.400 FM
Saudisat 1A 19 Apr 20:33:10 20:37:20 40° 234° (SW) 20:41:26 436.775 MHz
STRAND 1 19 Apr 20:58:20 21:03:28 82° 289° (WNW) 21:08:34 ?
HO-68 19 Apr 20:59:29 21:06:29 63° 62° (ENE) 21:13:33 435.675 MHz FM
SO-67 19 Apr 21:31:20 21:32:01 10° 275° (W) 21:32:42 435.3500 MHz FM
SO-50 19 Apr 21:34:16 21:38:10 27° 9° (N) 21:42:07 436.795 FM
FUNcube-1 19 Apr 21:43:20 21:46:15 19° 56° (NE) 21:49:11 145.950 - 145.970 MHz USB
ISS 19 Apr 21:47:02 21:49:40 21° 207° (SSW) 21:52:18 145.800 FM
Oscar 11 19 Apr 21:50:43 21:54:53 49° 67° (ENE) 21:59:05 145.825 FM, Beacon 2401.500 USB
UOSAT-12 19 Apr 22:13:50 22:17:56 29° 348° (NNW) 22:22:04 437.025 FM, 437.400 FM
STRAND 1 19 Apr 22:38:27 22:42:00 20° 310° (NW) 22:45:34 ?
HO-68 19 Apr 22:48:01 22:54:36 39° 264° (W) 23:01:15 435.675 MHz FM
SO-50 19 Apr 23:15:08 23:19:38 51° 32° (NNE) 23:24:12 436.795 FM
FUNcube-1 19 Apr 23:18:05 23:22:16 74° 256° (WSW) 23:26:27 145.950 - 145.970 MHz USB
Oscar 11 19 Apr 23:27:43 23:31:20 26° 267° (W) 23:35:00 145.825 FM, Beacon 2401.500 USB
MaSat-1 19 Apr 23:31:24 23:34:02 73° 308° (NW) 23:36:32 437.345 MHz
UOSAT-12 19 Apr 23:55:09 23:59:17 29° 12° (NNE) 00:03:25 437.025 FM, 437.400 FM
OPAL 20 Apr 00:49:20 00:51:53 14° 40° (NE) 00:54:26 ?
PCSat 20 Apr 00:52:14 00:56:05 20° 109° (ESE) 00:59:57 145.825 MHz
SO-50 20 Apr 00:55:51 01:00:14 44° 233° (SW) 01:04:41 436.795 FM
FUNcube-1 20 Apr 00:58:17 00:59:30 11° 276° (W) 01:00:43 145.950 - 145.970 MHz USB
UOSAT-12 20 Apr 01:35:33 01:40:15 61° 35° (NE) 01:44:56 437.025 FM, 437.400 FM
Sapphire 20 Apr 01:48:57 01:54:03 44° 120° (ESE) 01:59:11 437.095 MHz 1200 baud AX-25 AFSK
Oscar 19 20 Apr 02:02:32 02:05:43 16° 85° (E) 02:08:53 437.125 CW, 437.150 USB
Oscar 16 20 Apr 02:10:34 02:14:17 20° 88° (E) 02:18:00 437.025 USB, Beacon 2401.1428
KITSAT 1 20 Apr 02:22:55 02:27:29 16° 99° (E) 02:32:03 435.175 FM
OPAL 20 Apr 02:24:50 02:29:42 49° 62° (ENE) 02:34:40 ?
PCSat 20 Apr 02:33:23 02:38:48 83° 130° (SE) 02:44:16 145.825 MHz
Uribyol 2 20 Apr 02:46:43 02:50:37 21° 89° (E) 02:54:30 436.500 FM
UOSAT-12 20 Apr 03:15:57 03:20:16 36° 237° (WSW) 03:24:33 437.025 FM, 437.400 FM
Gurwin Techsat 1B 20 Apr 03:23:22 03:26:34 16° 84° (E) 03:29:45 435.225 FM
AO-27 20 Apr 03:26:45 03:31:38 39° 97° (E) 03:36:28 436.795 MHz FM
Sapphire 20 Apr 03:32:09 03:37:28 53° 322° (NW) 03:42:49 437.095 MHz 1200 baud AX-25 AFSK
ITAMSAT 1 20 Apr 03:37:15 03:42:15 46° 99° (E) 03:47:13 435.822 SSB
AO-Echo 20 Apr 03:38:21 03:42:54 39° 97° (E) 03:47:19 ?
Oscar 19 20 Apr 03:40:41 03:45:56 81° 106° (ESE) 03:51:09 437.125 CW, 437.150 USB
Oscar 16 20 Apr 03:49:06 03:54:21 85° 288° (WNW) 03:59:33 437.025 USB, Beacon 2401.1428
OPAL 20 Apr 04:04:12 04:08:48 34° 262° (W) 04:13:29 ?
TMSAT-1 20 Apr 04:10:25 04:14:52 27° 91° (E) 04:19:18 436.925 FM
KITSAT 1 20 Apr 04:13:20 04:21:13 58° 122° (ESE) 04:29:07 435.175 FM
PCSat 20 Apr 04:17:49 04:22:48 35° 333° (NNW) 04:27:47 145.825 MHz
Uribyol 2 20 Apr 04:25:32 04:30:44 79° 289° (WNW) 04:35:54 436.500 FM
JAS-1B 20 Apr 04:42:49 04:47:31 25° 90° (E) 04:52:12 435.800 - 435.900 CW/SSB
AO-7 20 Apr 04:43:44 04:49:38 21° 84° (E) 04:55:31 29.400 - 29.500 MHz
Gurwin Techsat 1B 20 Apr 05:02:06 05:07:27 78° 105° (ESE) 05:12:46 435.225 FM
AO-27 20 Apr 05:06:21 05:11:14 43° 297° (WNW) 05:16:07 436.795 MHz FM
STRAND 1 20 Apr 05:06:41 05:09:27 15° 46° (NE) 05:12:13 ?
ITAMSAT 1 20 Apr 05:16:58 05:21:43 37° 299° (WNW) 05:26:27 435.822 SSB
AO-Echo 20 Apr 05:17:14 05:21:44 38° 298° (WNW) 05:26:07 ?
Sapphire 20 Apr 05:17:29 05:22:02 26° 346° (NNW) 05:26:35 437.095 MHz 1200 baud AX-25 AFSK
Oscar 19 20 Apr 05:20:42 05:24:47 24° 306° (NW) 05:28:52 437.125 CW, 437.150 USB
Oscar 16 20 Apr 05:29:19 05:33:04 21° 309° (NW) 05:36:50 437.025 USB, Beacon 2401.1428
Uosat F 20 Apr 05:35:45 05:40:37 47° 100° (E) 05:45:26 435.120 FM
TMSAT-1 20 Apr 05:49:59 05:55:15 65° 292° (WNW) 06:00:29 436.925 FM
RS-15 20 Apr 05:51:17 05:56:38 15° 93° (E) 06:01:54 29.354 - 29.394 USB, Beacon 29.352 USB
PCSat 20 Apr 06:03:20 06:07:41 24° 358° (N) 06:12:04 145.825 MHz
Uribyol 2 20 Apr 06:05:57 06:09:31 19° 310° (NW) 06:13:05 436.500 FM
KITSAT 1 20 Apr 06:08:42 06:16:44 61° 327° (NNW) 06:24:49 435.175 FM
MaSat-1 20 Apr 06:09:40 06:12:03 28° 45° (NE) 06:14:41 437.345 MHz
JAS-1B 20 Apr 06:33:09 06:38:53 66° 293° (WNW) 06:44:33 435.800 - 435.900 CW/SSB
AO-7 20 Apr 06:35:40 06:44:00 72° 108° (ESE) 06:52:19 29.400 - 29.500 MHz
STRAND 1 20 Apr 06:42:43 06:47:43 58° 67° (ENE) 06:52:44 ?
Gurwin Techsat 1B 20 Apr 06:42:43 06:46:58 25° 306° (NW) 06:51:12 435.225 FM
AO-27 20 Apr 06:47:46 06:49:35 12° 319° (NW) 06:51:24 436.795 MHz FM
ITAMSAT 1 20 Apr 06:59:02 06:59:56 10° 321° (NW) 07:00:49 435.822 SSB
Sapphire 20 Apr 07:02:34 07:07:05 26° 12° (NNE) 07:11:36 437.095 MHz 1200 baud AX-25 AFSK
Uosat F 20 Apr 07:14:48 07:19:20 35° 300° (WNW) 07:23:50 435.120 FM
JAS-2 20 Apr 07:17:56 07:20:35 14° 84° (E) 07:23:17 435.800 - 435.900 CW/SSB, 435.910 FM
TMSAT-1 20 Apr 07:31:04 07:34:18 17° 313° (NW) 07:37:32 436.925 FM
AO-40 20 Apr 07:38:49 11:45:37 21° 174° (S) 14:44:56 Beacon 2401.320
PCSat 20 Apr 07:47:45 07:52:39 32° 24° (NNE) 07:57:31 145.825 MHz
MaSat-1 20 Apr 07:48:01 07:50:26 26° 241° (WSW) 07:53:10 437.345 MHz
Hamsat 20 Apr 07:52:50 07:57:08 55° 100° (E) 08:01:25 145.90 MHz
RS-15 20 Apr 07:55:31 08:06:09 52° 118° (ESE) 08:16:32 29.354 - 29.394 USB, Beacon 29.352 USB
KITSAT 1 20 Apr 08:06:07 08:13:41 40° 354° (N) 08:21:15 435.175 FM
STRAND 1 20 Apr 08:22:52 08:27:16 28° 267° (W) 08:31:41 ?
JAS-1B 20 Apr 08:24:57 08:28:35 17° 317° (NW) 08:32:09 435.800 - 435.900 CW/SSB
AO-7 20 Apr 08:28:51 08:36:27 42° 311° (NW) 08:44:04 29.400 - 29.500 MHz
SO-67 20 Apr 08:45:24 08:48:45 40° 98° (E) 08:52:05 435.3500 MHz FM
Sapphire 20 Apr 08:46:23 08:51:42 50° 37° (NE) 08:56:58 437.095 MHz 1200 baud AX-25 AFSK
JAS-2 20 Apr 09:01:24 09:06:41 70° 104° (ESE) 09:12:23 435.800 - 435.900 CW/SSB, 435.910 FM
Hamsat 20 Apr 09:29:19 09:32:53 25° 300° (WNW) 09:36:27 145.90 MHz
PCSat 20 Apr 09:31:18 09:36:46 85° 48° (NE) 09:42:13 145.825 MHz
KITSAT 1 20 Apr 10:03:04 10:10:56 48° 23° (NNE) 10:18:44 435.175 FM
HO-68 20 Apr 10:06:47 10:13:07 32° 93° (E) 10:19:25 435.675 MHz FM
RS-15 20 Apr 10:07:03 10:18:12 74° 326° (NW) 10:29:12 29.354 - 29.394 USB, Beacon 29.352 USB
SO-67 20 Apr 10:18:56 10:21:45 23° 297° (WNW) 10:24:33 435.3500 MHz FM
AO-7 20 Apr 10:21:56 10:27:17 19° 336° (NNW) 10:32:38 29.400 - 29.500 MHz
Sapphire 20 Apr 10:29:59 10:35:11 47° 239° (WSW) 10:40:21 437.095 MHz 1200 baud AX-25 AFSK
JAS-2 20 Apr 10:47:12 10:51:31 26° 304° (NW) 10:56:02 435.800 - 435.900 CW/SSB, 435.910 FM
FUNcube-1 20 Apr 11:01:15 11:03:22 13° 86° (E) 11:05:30 145.950 - 145.970 MHz USB
Oscar 11 20 Apr 11:07:12 11:11:16 36° 96° (E) 11:15:19 145.825 FM, Beacon 2401.500 USB
PCSat 20 Apr 11:15:22 11:19:39 24° 249° (WSW) 11:23:54 145.825 MHz
Oscar 19 20 Apr 11:50:44 11:52:47 12° 42° (NE) 11:54:51 437.125 CW, 437.150 USB
HO-68 20 Apr 11:54:18 12:01:28 74° 294° (WNW) 12:08:38 435.675 MHz FM
Oscar 16 20 Apr 11:58:23 12:01:04 14° 45° (NE) 12:03:46 437.025 USB, Beacon 2401.1428
KITSAT 1 20 Apr 11:58:55 12:07:05 83° 229° (SW) 12:15:10 435.175 FM
AO-7 20 Apr 12:13:01 12:17:06 15° 4° (N) 12:21:10 29.400 - 29.500 MHz
RS-15 20 Apr 12:21:33 12:32:16 52° 358° (N) 12:42:57 29.354 - 29.394 USB, Beacon 29.352 USB
Saudisat 1A 20 Apr 12:25:07 12:29:23 45° 127° (SE) 12:33:39 436.775 MHz
Uribyol 2 20 Apr 12:35:03 12:38:04 16° 46° (NE) 12:41:06 436.500 FM
FUNcube-1 20 Apr 12:36:13 12:40:28 86° 105° (ESE) 12:44:48 145.950 - 145.970 MHz USB
Oscar 11 20 Apr 12:43:30 12:47:29 36° 296° (WNW) 12:51:28 145.825 FM, Beacon 2401.500 USB
AO-27 20 Apr 13:14:10 13:18:24 26° 55° (NE) 13:22:39 436.795 MHz FM
Gurwin Techsat 1B 20 Apr 13:15:00 13:17:23 13° 43° (NE) 13:19:46 435.225 FM
AO-Echo 20 Apr 13:21:03 13:25:04 24° 55° (NE) 13:29:00 ?
ITAMSAT 1 20 Apr 13:24:19 13:28:45 30° 57° (ENE) 13:33:12 435.822 SSB
Oscar 19 20 Apr 13:26:06 13:31:00 46° 64° (ENE) 13:35:56 437.125 CW, 437.150 USB
Oscar 16 20 Apr 13:34:25 13:39:26 55° 66° (ENE) 13:44:30 437.025 USB, Beacon 2401.1428
HO-68 20 Apr 13:42:39 13:48:13 25° 317° (NW) 13:53:48 435.675 MHz FM
JAS-1B 20 Apr 13:48:26 13:52:22 16° 41° (NE) 13:56:01 435.800 - 435.900 CW/SSB
KITSAT 1 20 Apr 13:54:59 14:01:30 28° 252° (WSW) 14:08:00 435.175 FM
TMSAT-1 20 Apr 14:00:49 14:04:28 19° 50° (NE) 14:08:07 436.925 FM
AO-7 20 Apr 14:01:04 14:07:05 23° 31° (NNE) 14:13:06 29.400 - 29.500 MHz
Saudisat 1A 20 Apr 14:04:42 14:09:02 48° 329° (NNW) 14:13:23 436.775 MHz
Uribyol 2 20 Apr 14:11:35 14:16:40 62° 68° (ENE) 14:21:47 436.500 FM
FUNcube-1 20 Apr 14:13:39 14:16:25 17° 305° (NW) 14:19:12 145.950 - 145.970 MHz USB
RS-15 20 Apr 14:35:34 14:46:31 68° 30° (NNE) 14:57:32 29.354 - 29.394 USB, Beacon 29.352 USB
Gurwin Techsat 1B 20 Apr 14:51:10 14:56:14 48° 64° (ENE) 15:01:20 435.225 FM
AO-27 20 Apr 14:52:22 14:57:33 71° 256° (WSW) 15:02:45 436.795 MHz FM
AO-Echo 20 Apr 14:58:12 15:03:24 79° 255° (WSW) 15:08:29 ?
ITAMSAT 1 20 Apr 15:02:52 15:08:00 61° 258° (WSW) 15:13:09 435.822 SSB
Oscar 19 20 Apr 15:05:44 15:10:29 37° 264° (W) 15:15:17 437.125 CW, 437.150 USB
Oscar 16 20 Apr 15:14:36 15:19:06 30° 267° (W) 15:23:40 437.025 USB, Beacon 2401.1428
Uosat F 20 Apr 15:18:40 15:22:56 29° 57° (ENE) 15:27:12 435.120 FM
HO-68 20 Apr 15:31:27 15:33:37 12° 343° (NNW) 15:35:46 435.675 MHz FM
JAS-1B 20 Apr 15:34:46 15:41:55 53° 63° (ENE) 15:48:01 435.800 - 435.900 CW/SSB
TMSAT-1 20 Apr 15:38:22 15:43:40 77° 71° (ENE) 15:48:59 436.925 FM
Saudisat 1A 20 Apr 15:45:47 15:49:33 26° 352° (N) 15:53:18 436.775 MHz
AO-7 20 Apr 15:50:21 15:58:19 55° 56° (NE) 16:06:19 29.400 - 29.500 MHz
Uribyol 2 20 Apr 15:52:15 15:56:35 27° 268° (W) 16:00:56 436.500 FM
OPAL 20 Apr 16:06:03 16:10:51 36° 98° (E) 16:15:38 ?
ISS 20 Apr 16:11:16 16:12:38 12° 143° (SE) 16:14:01 145.800 FM
Gurwin Techsat 1B 20 Apr 16:31:31 16:36:23 36° 265° (W) 16:41:18 435.225 FM
AO-27 20 Apr 16:35:22 16:38:02 14° 276° (W) 16:40:43 436.795 MHz FM
AO-Echo 20 Apr 16:39:57 16:42:59 16° 275° (W) 16:45:59 ?
ITAMSAT 1 20 Apr 16:46:47 16:48:37 12° 278° (W) 16:50:27 435.822 SSB
RS-15 20 Apr 16:48:18 16:58:55 60° 238° (WSW) 17:09:43 29.354 - 29.394 USB, Beacon 29.352 USB
Uosat F 20 Apr 16:56:29 17:01:27 61° 257° (WSW) 17:06:27 435.120 FM
SO-50 20 Apr 16:57:22 17:01:43 50° 129° (SE) 17:06:07 436.795 FM
HO-68 20 Apr 17:18:08 17:18:18 10° 9° (N) 17:18:28 435.675 MHz FM
Hamsat 20 Apr 17:19:19 17:22:07 18° 55° (NE) 17:24:57 145.90 MHz
TMSAT-1 20 Apr 17:20:08 17:24:12 22° 271° (W) 17:28:18 436.925 FM
JAS-1B 20 Apr 17:25:37 17:32:46 43° 262° (W) 17:38:54 435.800 - 435.900 CW/SSB
Saudisat 1A 20 Apr 17:26:22 17:30:18 29° 16° (NNE) 17:34:13 436.775 MHz
UOSAT-12 20 Apr 17:36:12 17:38:11 13° 110° (ESE) 17:40:12 437.025 FM, 437.400 FM
JAS-2 20 Apr 17:39:11 17:42:29 17° 48° (NE) 17:45:43 435.800 - 435.900 CW/SSB, 435.910 FM
AO-7 20 Apr 17:43:14 17:51:15 52° 259° (WSW) 17:59:21 29.400 - 29.500 MHz
OPAL 20 Apr 17:44:53 17:49:55 49° 299° (WNW) 17:54:56 ?
ISS 20 Apr 17:45:37 17:48:40 32° 162° (SSE) 17:51:43 145.800 FM
